Simultaneous Nadir Overpasses (SNOs) Predictions

Prediction of SNOs between AQUA and METOP-A Satellite Orbit:

Table of predicted SNOs for the next 14.0 days since TLE Epoch: 6/2/2017
Index Date (AQUA) Time (AQUA) Lat,Lon (AQUA) SZA (AQUA ) Date (METOP-A) Time (METOP-A) Lat,Lon (METOP-A) SZA (METOP-A ) Distance(km) Time Diff (sec)
1 06/03/2017 11:17:26 -73.93,-175.36 128.44 06/03/2017 11:17:01 -73.92,-175.26 128.45 3.38 25
2 06/03/2017 12:06:55 73.98, -7.84 51.62 06/03/2017 12:07:40 73.97, -7.80 51.60 1.73 45
3 06/06/2017 06:02:01 73.19, 85.02 50.47 06/06/2017 06:00:56 73.14, 82.04 50.54 95.98 65
4 06/06/2017 06:51:40 -73.91,-108.88 128.76 06/06/2017 06:51:22 -73.92,-108.86 128.76 0.83 18
5 06/06/2017 07:41:09 73.97, 58.63 51.30 06/06/2017 07:42:01 73.97, 58.60 51.29 0.78 52
6 06/09/2017 01:36:20 73.45, 150.93 50.49 06/09/2017 01:35:12 73.39, 149.00 50.51 61.59 68
7 06/09/2017 02:25:54 -73.90, -42.41 129.03 06/09/2017 02:25:43 -73.92, -42.45 129.01 1.87 11
8 06/09/2017 03:15:23 73.97, 125.08 51.04 06/09/2017 03:16:22 73.97, 125.00 51.03 2.41 59
9 06/11/2017 21:10:38 73.71,-143.20 50.57 06/11/2017 21:09:26 73.69,-143.92 50.58 22.83 72
10 06/11/2017 22:00:07 -73.90, 24.03 129.23 06/11/2017 22:00:03 -73.91, 23.95 129.22 2.99 4
11 06/11/2017 22:49:36 73.97,-168.49 50.84 06/11/2017 22:50:42 73.96,-168.60 50.83 3.73 66
12 06/14/2017 16:44:55 73.88, -77.12 50.60 06/14/2017 16:43:43 73.88, -77.06 50.61 1.92 72
13 06/14/2017 17:34:22 -73.96, 90.35 129.32 06/14/2017 17:34:23 -73.96, 90.46 129.32 3.54 1




NCC Satellite Simultaneous Nadir Overpasses (SNOs) Prediction Service
